{"data":{"norad_id":64706,"epoch":"2026-09-20T17:30:09.963072Z","epoch_age_seconds":107786,"freshness":"FRESH","line1":"1 64706U 25142L   26263.72928198  .00197739  00000+0  65754-2 0  9996","line2":"2 64706  70.0014 180.3874 0003587 274.3738  85.7028 15.30206743 68763","mean_motion":15.30206743,"eccentricity":0.0003587,"inclination_deg":70.0014,"raan_deg":180.3874,"arg_perigee_deg":274.3738,"mean_anomaly_deg":85.7028,"bstar":0.0065754,"rev_number":6876,"period_min":94.104931022383,"perigee_km":472.73664594521,"apogee_km":477.65322627617,"semimajor_km":6853.3319361107,"source":"CELESTRAK","updated_at":"2026-09-21T09:00:35.404762Z"}}